OSCAR 7 (AO-7) 1 07530U 74089B 12137.06351534 -.00000027 00000-0 10000-3 0 3802 2 07530 101.4002 135.5145 0012002 347.1762 12.9000 12.53589275716029 PHASE 3B (AO-10) 1 14129U 83058B 12133.83086140 .00000000 00000-0 10000-3 0 9748 2 14129 27.2553 338.4155 6025669 159.3400 242.4104 2.05864017189499 UOSAT 2 (UO-11) 1 14781U 84021B 12137.21915042 .00000785 00000-0 10963-3 0 8681 2 14781 97.9560 197.0156 0009596 131.7264 228.4765 14.80423898515205 PACSAT (AO-16) 1 20439U 90005D 12136.87738872 .00000137 00000-0 66701-4 0 4669 2 20439 98.4283 81.1600 0009979 256.0732 103.9339 14.32048297165379 LUSAT (LO-19) 1 20442U 90005G 12136.83543416 .00000096 00000-0 51195-4 0 3920 2 20442 98.3939 84.2380 0011038 245.2438 114.7616 14.32267211165558 EYESAT-1 (AO-27) 1 22825U 93061C 12136.83759935 .00000179 00000-0 87282-4 0 1035 2 22825 98.5728 80.1593 0008879 20.9301 339.2232 14.29456462971850 ITAMSAT (IO-26) 1 22826U 93061D 12136.98463554 .00000123 00000-0 64727-4 0 8531 2 22826 98.5672 80.6836 0009229 14.0816 346.0622 14.29729515972008 RADIO ROSTO (RS-15) 1 23439U 94085A 12135.94610610 -.00000039 00000-0 10000-3 0 4987 2 23439 64.8190 346.0419 0164489 224.2694 134.4973 11.27556944715940 JAS-2 (FO-29) 1 24278U 96046B 12137.23964974 .00000084 00000-0 11887-3 0 8401 2 24278 98.5838 242.0785 0351198 111.9932 251.8910 13.52983702777633 TECHSAT 1B (GO-32) 1 25397U 98043D 12136.98905732 .00000150 00000-0 84562-4 0 7753 2 25397 98.3599 117.2875 0001762 50.0996 310.0370 14.23273940719441 SEDSAT 1 (SO-33) 1 25509U 98061B 12136.21907839 .00000778 00000-0 14043-3 0 2324 2 25509 31.4347 160.2693 0352923 274.8716 81.1706 14.28733889707933 ISS (ZARYA) 1 25544U 98067A 12137.22090924 .00011335 00000-0 16545-3 0 5636 2 25544 51.6406 282.2467 0010515 321.4531 98.1082 15.56132344773038 PCSAT (NO-44) 1 26931U 01043C 12137.14353113 -.00000191 00000-0 -42123-4 0 400 2 26931 67.0511 202.9273 0007649 268.1386 91.8853 14.29792058554665 SAUDISAT 1C (SO-50) 1 27607U 02058C 12136.77161197 .00000495 00000-0 95566-4 0 7619 2 27607 64.5591 33.5060 0084038 254.7908 104.3885 14.72356022505190 CUTE-1 (CO-55) 1 27844U 03031E 12135.54659447 .00000239 00000-0 13058-3 0 3738 2 27844 98.7027 144.4147 0009616 326.0483 34.0090 14.21011331460118 CUBESAT XI-IV (CO-57) 1 27848U 03031J 12135.68522316 .00000200 00000-0 11293-3 0 3244 2 27848 98.7115 143.8708 0009570 332.0969 27.9697 14.20764339460072 MOZHAYETS 4 (RS-22) 1 27939U 03042A 12137.21638023 .00000614 00000-0 12563-3 0 3577 2 27939 97.8153 339.6701 0013625 11.7888 348.3622 14.64006436461209 ECHO (AO-51) 1 28375U 04025K 12136.92983729 .00000161 00000-0 60812-4 0 2664 2 28375 98.1450 103.7130 0083759 137.9647 222.7994 14.40938325414124 HAMSAT (VO-52) 1 28650U 05017B 12136.80194454 .00001699 00000-0 21443-3 0 1020 2 28650 97.5993 169.3388 0027120 145.1549 215.1456 14.82898894380178 CUBESAT XI-V (CO-58) 1 28895U 05043F 12137.09126176 .00000586 00000-0 12960-3 0 1756 2 28895 97.9192 4.7680 0016634 251.2915 108.6518 14.60603534348973 CUTE-1.7+APD II (CO-65) 1 32785U 08021C 12136.65448291 .00001002 00000-0 12982-3 0 3080 2 32785 97.8021 198.4730 0014737 163.9659 196.2036 14.82908175218943 DELFI-C3 (DO-64) 1 32789U 08021G 12135.68157492 .00004303 00000-0 50252-3 0 3108 2 32789 97.8143 200.0152 0015143 163.3820 196.7885 14.85585160218907 YUBILEINY (RS-30) 1 32953U 08025A 12137.01414770 .00000010 00000-0 00000+0 0 7803 2 32953 82.4996 315.1489 0019246 21.0663 339.1201 12.43023305180565 PRISM 1 33493U 09002B 12137.09437702 .00002782 00000-0 34206-3 0 6971 2 33493 98.1665 276.9052 0019687 44.2793 315.9991 14.83738815178999 STARS 1 33498U 09002G 12137.13294935 .00001364 00000-0 22120-3 0 7237 2 33498 98.1079 253.4232 0013087 168.5876 191.5617 14.72790457177803 KKS-1 1 33499U 09002H 12136.52617023 .00000924 00000-0 15630-3 0 7371 2 33499 98.1077 251.5559 0010193 169.7732 190.3683 14.71678628177626 SWISSCUBE 1 35932U 09051B 12137.11209500 .00005318 00000-0 12986-2 0 5620 2 35932 98.3387 240.1736 0006693 194.8612 165.2003 14.52999426140205 BEESAT 1 35933U 09051C 12137.23904018 .00007932 00000-0 19109-2 0 7473 2 35933 98.3416 240.7183 0006767 205.6920 154.3399 14.53489835140279 ITUPSAT1 1 35935U 09051E 12137.20495119 .00001960 00000-0 48744-3 0 8989 2 35935 98.3393 240.8253 0008814 196.0957 163.9840 14.52843231140205 HOPE-1 (HO-68) 1 36122U 09072B 12137.06433328 -.00000044 00000-0 00000+0 0 4640 2 36122 100.3637 197.0553 0007418 180.4080 179.7030 13.16295289116165 JUGNU 1 37839U 11058B 12136.24049261 .00000620 00000-0 19019-3 0 1483 2 37839 19.9659 197.8259 0018775 220.4114 139.4869 14.12052670 30588 SRMSAT 1 37841U 11058D 12136.25022161 .00000264 00000-0 00000+0 0 1498 2 37841 19.9756 202.0107 0012083 191.3171 168.6963 14.10137204 30534 RAX-2 1 37853U 11061D 12136.87056206 .00006727 00000-0 53788-3 0 1776 2 37853 101.7148 162.3467 0248219 83.0466 279.8896 14.79691251 29614 AUBIESAT-1 (AO-71) 1 37854U 11061E 12136.56296781 .00007075 00000-0 55640-3 0 1784 2 37854 101.7178 162.1140 0249412 83.5661 279.3865 14.80046417 29567 M-CUBED & EXP-1 PRIME 1 37855U 11061F 12137.11447068 .00006877 00000-0 54290-3 0 1771 2 37855 101.7189 162.8766 0249508 81.8074 281.1337 14.79924428 29645 CHIBIS-M (RS-39) 1 38051U 11062C 12137.12855447 .00008904 00000-0 37826-3 0 3362 2 38051 51.6300 312.5532 0011146 282.9679 185.8956 15.23740714 17083